CW6488 Weather Reports


time (UTC)temp
C
wind
direction
speed
KPH
gust
KPH
rain 1hr
cm
rain 24hr
cm
rain mn
cm
humidity
%
barometer
mb
20260510141521 20 141 0.0 0.0 0.00 2.06 0.00 96 1015.8
20260510140022 20 140 0.0 0.0 0.00 2.26 0.00 95 1015.6
20260510134521 20 140 0.0 0.0 0.00 2.34 0.00 96 1015.8
20260510133021 20 140 0.0 0.0 0.00 2.46 0.00 95 1015.5
20260510131528 20 140 0.0 0.0 0.00 2.57 0.00 96 1015.2
20260510130021 20 148 0.0 0.0 0.00 2.64 0.00 95 1015.1
20260510124520 19 148 0.0 0.0 0.00 2.82 0.00 96 1015.1
20260510123020 19 153 0.0 0.0 0.00 3.56 0.00 95 1014.6
20260510121520 19 153 0.0 0.0 0.00 6.10 0.00 95 1014.5
20260510114519 18 153 0.0 0.0 0.00 6.12 0.00 96 1014.0
20260510113019 18 154 0.0 0.0 0.00 6.12 0.00 96 1013.5
20260510110019 18 157 0.0 0.0 0.00 6.12 0.00 95 1012.9
20260510103019 18 263 0.0 0.0 0.00 6.12 0.00 95 1012.4
20260510101518 19 263 0.0 0.0 0.00 6.12 0.00 95 1012.3
20260510100018 19 263 0.0 0.0 0.00 6.12 0.00 95 1012.2
20260510094518 19 263 0.0 0.0 0.00 6.12 0.00 95 1011.9
20260510091518 19 320 0.0 0.0 0.00 6.12 0.00 95 1012.1
20260510084518 19 321 0.0 0.0 0.00 6.12 0.00 95 1012.3
20260510083017 19 321 0.0 0.0 0.00 6.15 0.00 95 1012.0
20260510081517 19 321 0.0 0.0 0.00 6.15 0.00 96 1012.0
20260510080017 19 321 0.0 0.0 0.00 6.17 0.00 95 1011.9
20260510074517 19 321 0.0 0.0 0.00 6.20 0.00 95 1011.7
20260510071517 19 321 0.0 0.0 0.00 6.43 0.00 95 1011.5
20260510070016 20 321 0.0 0.0 0.00 6.43 0.00 96 1011.5
20260510064516 20 321 0.0 0.0 0.00 6.45 0.00 96 1011.7
20260510063016 20 321 0.0 0.0 0.00 6.45 0.00 95 1011.8
20260510060015 20 321 0.0 0.0 0.00 6.45 0.00 95 1012.0
20260510054515 20 321 0.0 0.0 0.00 6.45 0.00 95 1012.0
20260510053015 20 321 0.0 0.0 0.00 6.45 0.00 95 1011.9
20260510050044 20 321 0.0 0.0 0.00 6.53 0.00 95 1011.9
20260510044514 20 321 0.0 0.0 0.00 6.58 6.53 96 1011.8
20260510043044 20 321 0.0 0.0 0.00 6.58 6.53 95 1011.8
20260510041544 20 321 0.0 0.0 0.00 6.58 6.53 95 1011.7
20260510040043 20 321 0.0 0.0 0.00 6.58 6.53 95 1011.9
20260510033013 20 321 0.0 0.0 0.00 6.58 6.53 95 1012.0
20260510031544 20 320 0.0 0.0 0.00 6.58 6.53 95 1012.5
20260510030013 20 320 0.0 0.0 0.00 6.58 6.53 95 1012.2
20260510024513 20 320 0.0 0.0 0.00 6.58 6.53 95 1012.1
20260510023013 20 320 0.0 0.0 0.00 6.58 6.53 95 1011.9
20260510021542 20 319 0.0 0.0 0.00 6.58 6.53 95 1011.5
20260510020042 20 319 0.0 0.0 0.00 6.58 6.53 95 1011.9
20260510013042 20 318 0.0 0.0 0.05 6.58 6.53 95 1011.5
20260510010041 20 277 0.0 0.0 0.10 6.58 6.53 96 1010.7
20260510004541 20 33 0.0 0.0 0.10 6.55 6.50 96 1010.4
20260510003049 20 313 0.0 0.0 0.08 6.53 6.48 96 1011.1
20260510001542 20 312 4.8 0.0 0.03 6.48 6.43 95 1010.9
20260509234540 20 309 0.0 0.0 0.03 6.45 6.40 96 1011.1
20260509233040 20 309 0.0 0.0 0.05 6.45 6.40 96 1010.8
20260509231540 20 308 0.0 0.0 0.08 6.45 6.40 96 1010.9
20260509230039 20 308 0.0 0.0 0.10 6.43 6.38 96 1011.1
20260509224539 20 308 0.0 0.0 0.13 6.43 6.38 96 1011.1
20260509223039 20 308 0.0 0.0 0.10 6.50 6.35 96 1010.4
20260509221539 20 308 0.0 0.0 0.08 6.60 6.32 95 1010.3
20260509220039 20 306 0.0 0.0 0.03 6.63 6.27 95 1011.0
20260509214538 20 306 0.0 0.0 0.03 6.65 6.25 96 1010.4
20260509213038 20 306 0.0 0.0 0.08 6.68 6.25 96 1010.3
20260509211538 20 306 0.0 0.0 0.15 6.71 6.25 95 1010.3
20260509210038 20 306 0.0 0.0 0.25 6.81 6.25 95 1010.3
20260509204538 20 306 0.0 0.0 0.30 6.86 6.22 95 1009.6
20260509201537 20 145 0.0 0.0 0.41 6.86 6.10 96 1009.8
20260509200037 20 263 0.0 0.0 0.46 7.01 5.99 95 1011.2
20260509194537 19 188 0.0 0.0 0.48 7.09 5.92 95 1011.7
20260509193036 19 186 0.0 0.0 0.48 7.06 5.82 95 1011.7
20260509191536 19 184 0.0 0.0 0.38 7.09 5.69 95 1011.2
20260509190036 19 184 0.0 0.0 0.28 7.04 5.54 95 1011.1
20260509184536 19 186 0.0 0.0 0.20 7.01 5.44 95 1011.5
20260509183035 19 186 0.0 0.0 0.13 6.93 5.33 95 1011.6
20260509181535 19 259 0.0 0.0 0.13 6.96 5.31 95 1011.6
20260509180035 19 259 0.0 0.0 0.13 6.93 5.26 95 1011.4
20260509174534 19 261 0.0 0.0 0.13 6.91 5.23 95 1011.3
20260509173034 19 159 0.0 0.0 0.15 6.88 5.21 95 1011.0
20260509171534 18 173 0.0 0.0 0.15 6.86 5.18 95 1011.6
20260509170034 18 213 0.0 0.0 0.13 6.81 5.13 95 1011.4
20260509164533 18 214 0.0 0.0 0.20 6.78 5.11 95 1011.5
20260509163033 18 113 0.0 0.0 0.23 6.73 5.05 95 1011.4
20260509161534 18 170 1.6 0.0 0.25 6.71 5.03 95 1011.7
20260509160033 18 61 0.0 0.0 0.25 6.68 5.00 95 1011.7
20260509154533 18 57 3.2 0.0 0.18 6.58 4.90 95 1012.3
20260509151532 18 150 1.6 0.0 0.30 6.45 4.78 95 1012.0
20260509150032 18 107 0.0 0.0 0.48 6.43 4.75 95 1011.7
20260509144532 18 108 0.0 0.0 0.53 6.40 4.72 95 1011.5
20260509143032 19 96 0.0 0.0 0.56 6.30 4.62 95 1011.5